• în România
  • Lista ţărilor
  • Pe 7 zile
  • Temperatura apei
  • Hartă satelitară
  • Meteo pe hartă
  • Widget-uri
  • user-avatar
    Intrare

    Meteo pe oră la Miskolc

    Astăzi, 18 Februarie, Duminică

    Timp Temperatura Precipitaţii Vânt Presiune Umiditate
    00:00 -1°C° 0,4 mm 2 m/s 752 mmHg 88%
    01:00 -1°C° 0,4 mm 3 m/s 752 mmHg 89%
    02:00 -1°C° 0,4 mm 2 m/s 752 mmHg 90%
    03:00 -1°C° 0,4 mm 2 m/s 752 mmHg 91%
    04:00 -1°C° 0,4 mm 2 m/s 752 mmHg 91%
    05:00 -1°C° 0,2 mm 2 m/s 752 mmHg 91%
    06:00 -1°C° 0,2 mm 2 m/s 752 mmHg 90%
    07:00 -1°C° 0,2 mm 2 m/s 752 mmHg 90%
    08:00 0°C° 0 mm 3 m/s 752 mmHg 85%
    09:00 +1°C° 0 mm 3 m/s 753 mmHg 81%
    10:00 +1°C° 0 mm 3 m/s 753 mmHg 76%
    11:00 +2°C° 0 mm 3 m/s 753 mmHg 73%
    12:00 +3°C° 0 mm 4 m/s 753 mmHg 69%
    13:00 +4°C° 0 mm 4 m/s 753 mmHg 66%
    14:00 +3°C° 0 mm 4 m/s 753 mmHg 68%
    15:00 +3°C° 0 mm 4 m/s 753 mmHg 69%
    16:00 +3°C° 0 mm 3 m/s 753 mmHg 71%
    17:00 +1°C° 0 mm 3 m/s 754 mmHg 73%
    18:00 -1°C° 0 mm 4 m/s 754 mmHg 75%
    19:00 -2°C° 0 mm 4 m/s 755 mmHg 78%
    20:00 -2°C° 0 mm 4 m/s 755 mmHg 78%
    21:00 -3°C° 0 mm 4 m/s 755 mmHg 78%
    22:00 -3°C° 0 mm 4 m/s 755 mmHg 78%
    23:00 -3°C° 0 mm 4 m/s 755 mmHg 77%

    Mâine, 19 Februarie, Luni

    Timp Temperatura Precipitaţii Vânt Presiune Umiditate
    00:00 -4°C° 0 mm 4 m/s 755 mmHg 77%
    01:00 -4°C° 0 mm 4 m/s 755 mmHg 77%
    02:00 -4°C° 0 mm 3 m/s 755 mmHg 77%
    03:00 -4°C° 0 mm 3 m/s 755 mmHg 76%
    04:00 -4°C° 0 mm 3 m/s 754 mmHg 76%
    05:00 -4°C° 0 mm 3 m/s 754 mmHg 76%
    06:00 -5°C° 0 mm 3 m/s 754 mmHg 75%
    07:00 -5°C° 0 mm 3 m/s 754 mmHg 75%
    08:00 -2°C° 0 mm 3 m/s 754 mmHg 69%
    09:00 -1°C° 0 mm 3 m/s 754 mmHg 64%
    10:00 0°C° 0 mm 3 m/s 754 mmHg 59%
    11:00 +1°C° 0 mm 3 m/s 753 mmHg 56%
    12:00 +2°C° 0 mm 3 m/s 753 mmHg 53%
    13:00 +3°C° 0 mm 3 m/s 752 mmHg 50%
    14:00 +2°C° 0 mm 3 m/s 752 mmHg 53%
    15:00 +3°C° 0 mm 2 m/s 752 mmHg 57%
    16:00 +3°C° 0 mm 2 m/s 751 mmHg 60%
    17:00 +2°C° 0 mm 2 m/s 751 mmHg 63%
    18:00 +1°C° 0 mm 2 m/s 751 mmHg 66%
    19:00 -2°C° 0 mm 2 m/s 751 mmHg 70%
    20:00 -2°C° 0 mm 2 m/s 751 mmHg 70%
    21:00 -2°C° 0 mm 2 m/s 751 mmHg 70%
    22:00 -2°C° 0 mm 2 m/s 751 mmHg 70%
    23:00 -2°C° 0 mm 2 m/s 751 mmHg 70%

    Poimâine, 20 Februarie, Marţi

    Timp Temperatura Precipitaţii Vânt Presiune Umiditate
    00:00 -2°C° 0 mm 2 m/s 751 mmHg 70%
    01:00 -2°C° 0 mm 2 m/s 751 mmHg 70%
    02:00 -2°C° 0 mm 2 m/s 750 mmHg 70%
    03:00 -2°C° 0 mm 2 m/s 750 mmHg 70%
    04:00 -2°C° 0 mm 2 m/s 750 mmHg 70%
    05:00 -1°C° 0 mm 3 m/s 749 mmHg 71%
    06:00 -1°C° 0 mm 3 m/s 749 mmHg 71%
    07:00 -1°C° 0 mm 3 m/s 749 mmHg 71%
    08:00 0°C° 0 mm 3 m/s 749 mmHg 68%
    09:00 +1°C° 0 mm 3 m/s 749 mmHg 65%
    10:00 +2°C° 0 mm 3 m/s 749 mmHg 62%
    11:00 +2°C° 0 mm 3 m/s 748 mmHg 61%
    12:00 +3°C° 0 mm 3 m/s 748 mmHg 60%
    13:00 +4°C° 0 mm 3 m/s 747 mmHg 59%
    14:00 +3°C° 0,2 mm 3 m/s 747 mmHg 63%
    15:00 +3°C° 0,2 mm 3 m/s 747 mmHg 66%
    16:00 +4°C° 0,2 mm 2 m/s 747 mmHg 70%
    17:00 +3°C° 0,4 mm 2 m/s 747 mmHg 72%
    18:00 +2°C° 0,4 mm 3 m/s 747 mmHg 73%
    19:00 +1°C° 0,4 mm 3 m/s 747 mmHg 75%
    20:00 +1°C° 0,4 mm 3 m/s 747 mmHg 76%
    21:00 +1°C° 0,4 mm 3 m/s 747 mmHg 77%
    22:00 +1°C° 0,4 mm 3 m/s 747 mmHg 78%
    23:00 +1°C° 0,3 mm 3 m/s 747 mmHg 80%

    21 Februarie, Miercuri

    Timp Temperatura Precipitaţii Vânt Presiune Umiditate
    00:00 0°C° 0,3 mm 3 m/s 746 mmHg 82%
    01:00 0°C° 0,3 mm 3 m/s 746 mmHg 84%
    02:00 0°C° 0,2 mm 3 m/s 746 mmHg 85%
    03:00 0°C° 0,2 mm 3 m/s 746 mmHg 85%
    04:00 0°C° 0,2 mm 3 m/s 746 mmHg 86%
    05:00 0°C° 0,2 mm 3 m/s 746 mmHg 87%
    06:00 +1°C° 0,2 mm 2 m/s 746 mmHg 87%
    07:00 +1°C° 0,2 mm 2 m/s 746 mmHg 88%
    08:00 +2°C° 0,2 mm 2 m/s 746 mmHg 86%
    09:00 +2°C° 0,2 mm 2 m/s 747 mmHg 85%
    10:00 +2°C° 0,2 mm 3 m/s 747 mmHg 83%
    11:00 +3°C° 0,1 mm 2 m/s 747 mmHg 81%
    12:00 +4°C° 0,1 mm 2 m/s 746 mmHg 80%
    13:00 +4°C° 0,1 mm 2 m/s 746 mmHg 78%
    14:00 +4°C° 0 mm 2 m/s 746 mmHg 79%
    15:00 +4°C° 0 mm 2 m/s 746 mmHg 80%
    16:00 +4°C° 0 mm 2 m/s 746 mmHg 81%
    17:00 +2°C° 0 mm 3 m/s 746 mmHg 82%
    18:00 +1°C° 0 mm 3 m/s 746 mmHg 83%
    19:00 0°C° 0 mm 3 m/s 746 mmHg 84%
    20:00 0°C° 0 mm 3 m/s 747 mmHg 83%
    21:00 -2°C° 0 mm 4 m/s 747 mmHg 82%
    22:00 -2°C° 0 mm 4 m/s 747 mmHg 81%
    23:00 -2°C° 0 mm 4 m/s 747 mmHg 81%

    22 Februarie, Joi

    Timp Temperatura Precipitaţii Vânt Presiune Umiditate
    00:00 -2°C° 0 mm 4 m/s 746 mmHg 80%
    01:00 -3°C° 0 mm 4 m/s 746 mmHg 80%
    02:00 -3°C° 0 mm 4 m/s 746 mmHg 80%
    03:00 -4°C° 0 mm 5 m/s 745 mmHg 80%
    04:00 -2°C° 0 mm 5 m/s 745 mmHg 80%
    05:00 -2°C° 0 mm 5 m/s 745 mmHg 79%
    06:00 -2°C° 0 mm 5 m/s 745 mmHg 79%
    07:00 -2°C° 0 mm 5 m/s 744 mmHg 78%
    08:00 -1°C° 0 mm 5 m/s 744 mmHg 76%
    09:00 -1°C° 0 mm 6 m/s 744 mmHg 73%
    10:00 +1°C° 0 mm 6 m/s 744 mmHg 70%
    11:00 +2°C° 0 mm 6 m/s 743 mmHg 69%
    12:00 +3°C° 0 mm 6 m/s 743 mmHg 68%
    13:00 +4°C° 0 mm 6 m/s 742 mmHg 67%
    14:00 +5°C° 0 mm 5 m/s 742 mmHg 69%
    15:00 +3°C° 0 mm 5 m/s 742 mmHg 71%
    16:00 +4°C° 0 mm 4 m/s 742 mmHg 72%
    17:00 +3°C° 0,2 mm 4 m/s 742 mmHg 75%
    18:00 +3°C° 0,2 mm 4 m/s 742 mmHg 77%
    19:00 +1°C° 0,2 mm 4 m/s 741 mmHg 80%
    20:00 +1°C° 0,3 mm 4 m/s 741 mmHg 81%
    21:00 0°C° 0,3 mm 4 m/s 741 mmHg 82%
    22:00 0°C° 0,3 mm 4 m/s 741 mmHg 84%
    23:00 +1°C° 0,4 mm 3 m/s 741 mmHg 85%

    23 Februarie, Vineri

    Timp Temperatura Precipitaţii Vânt Presiune Umiditate
    00:00 +1°C° 0,4 mm 3 m/s 741 mmHg 87%
    01:00 +2°C° 0,4 mm 2 m/s 741 mmHg 88%
    02:00 +2°C° 0,5 mm 2 m/s 741 mmHg 89%
    03:00 +2°C° 0,5 mm 2 m/s 741 mmHg 90%
    04:00 +1°C° 0,5 mm 2 m/s 740 mmHg 91%
    05:00 +1°C° 0,5 mm 2 m/s 741 mmHg 92%
    06:00 +1°C° 0,5 mm 2 m/s 741 mmHg 93%
    07:00 +1°C° 0,5 mm 2 m/s 741 mmHg 94%
    08:00 +1°C° 0,2 mm 2 m/s 741 mmHg 93%
    09:00 +2°C° 0,2 mm 2 m/s 741 mmHg 92%
    10:00 +2°C° 0,2 mm 2 m/s 741 mmHg 91%
    11:00 +2°C° 0,1 mm 2 m/s 740 mmHg 89%
    12:00 +2°C° 0,1 mm 2 m/s 740 mmHg 88%
    13:00 +2°C° 0,1 mm 3 m/s 740 mmHg 86%
    14:00 +2°C° 0,2 mm 3 m/s 740 mmHg 86%
    15:00 +1°C° 0,2 mm 3 m/s 740 mmHg 86%
    16:00 +1°C° 0,2 mm 3 m/s 740 mmHg 85%
    17:00 +1°C° 0,2 mm 3 m/s 740 mmHg 85%
    18:00 0°C° 0,2 mm 3 m/s 740 mmHg 85%
    19:00 -1°C° 0,2 mm 4 m/s 740 mmHg 85%
    20:00 -2°C° 0,1 mm 4 m/s 740 mmHg 83%
    21:00 -2°C° 0,1 mm 5 m/s 740 mmHg 81%
    22:00 -4°C° 0,1 mm 5 m/s 740 mmHg 80%
    23:00 -4°C° 0,1 mm 5 m/s 740 mmHg 79%
    Arată mai mult